Weather History for KLFT - December, 2014

Change the Weather History Date:

Saturday, December 13, 2014

  Actual Average Record
Temperature  
Mean Temperature 62 °F 55 °F  
Max Temperature 74 °F 64 °F 83 °F (1933)
Min Temperature 49 °F 45 °F 15 °F (1962)
Degree Days  
Heating Degree Days 3 11  
Month to date heating degree days 76 132  
Since 1 July heating degree days 377 331  
Growing Degree Days 12 (Base 50)    
Moisture  
Dew Point 48 °F    
Average Humidity 64    
Maximum Humidity 93    
Minimum Humidity 35    
Precipitation  
Precipitation 0.00 in 0.17 in 2.51 in (1920)
Month to date precipitation T 2.24  
Year to date precipitation 56.50 57.16  
Snow  
Snow 0.00 in 0.00 in 0.00 in ()
Month to date snowfall 0.0 0.0  
Since 1 July snowfall 0.0 0.0  
Snow Depth 0.00 in    
Sea Level Pressure  
Sea Level Pressure 30.25 in    
Wind  
Wind Speed 2 mph (SE)    
Max Wind Speed 8 mph    
Max Gust Speed 10 mph    
Visibility 9 miles    
Events      
T = Trace of Precipitation, MM = Missing Value Source: NWS Daily Summary

Daily Weather History Graph

Daily Weather History Graph

Search for Another Location

Airport or City:

Trip Planner

Search our weather history database for the weather conditions in past years. The results will help you decide how hot, cold, wet, or windy it might be!

Date:

Astronomy

Dec. 13, 2014 Rise Set
Actual Time 6:55 AM CST 5:08 PM CST
Civil Twilight 6:29 AM CST 5:35 PM CST
Nautical Twilight 5:59 AM CST 6:05 PM CST
Astronomical Twilight 5:29 AM CST 6:34 PM CST
Moon 11:47 PM CST (12/13) 11:40 AM CST (12/13)
Length of Visible Light 11h 06m
Length of Day
10h 13m
Waning Gibbous, 57% of the Moon is Illuminated
Dec 13
Waning Gibbous
Dec 14
Last Quarter
Dec 21
New
Dec 28
First Quarter
Jan 4
Full

Hourly Weather History & Observations

Time (CST) Temp. Dew Point Humidity Pressure Visibility Wind Dir Wind Speed Gust Speed Precip Events Conditions
12:53 AM 55.9 °F 50.0 °F 80% 30.29 in 10.0 mi Calm Calm - N/A   Mostly Cloudy
1:53 AM 54.0 °F 50.0 °F 86% 30.29 in 9.0 mi Calm Calm - N/A   Scattered Clouds
2:53 AM 52.0 °F 48.0 °F 86% 30.29 in 9.0 mi Calm Calm - N/A   Mostly Cloudy
3:53 AM 52.0 °F 48.9 °F 89% 30.28 in 7.0 mi Calm Calm - N/A   Mostly Cloudy
4:53 AM 51.1 °F 48.9 °F 92% 30.28 in 6.0 mi Calm Calm - N/A   Mostly Cloudy
5:53 AM 51.1 °F 46.0 °F 83% 30.29 in 9.0 mi ESE 3.5 mph - N/A   Mostly Cloudy
6:53 AM 50.0 °F 45.0 °F 83% 30.29 in 8.0 mi Calm Calm - N/A   Partly Cloudy
7:53 AM 52.0 °F 46.0 °F 80% 30.31 in 6.0 mi Calm Calm - N/A   Haze
8:53 AM 55.9 °F 46.9 °F 72% 30.33 in 9.0 mi ESE 3.5 mph - N/A   Mostly Cloudy
9:53 AM 62.1 °F 48.9 °F 62% 30.32 in 9.0 mi SE 5.8 mph - N/A   Clear
10:53 AM 66.0 °F 50.0 °F 56% 30.30 in 10.0 mi Calm Calm - N/A   Clear
11:53 AM 69.1 °F 48.9 °F 49% 30.26 in 10.0 mi East 3.5 mph - N/A   Clear
12:53 PM 70.0 °F 48.9 °F 47% 30.23 in 10.0 mi Variable 4.6 mph - N/A   Partly Cloudy
1:53 PM 71.6 °F 46.4 °F 41% 30.20 in 10.0 mi Calm Calm - N/A   Scattered Clouds
2:53 PM 73.0 °F 46.0 °F 38% 30.19 in 10.0 mi Variable 4.6 mph - N/A   Clear
3:53 PM 72.0 °F 43.0 °F 35% 30.19 in 10.0 mi Calm Calm - N/A   Clear
4:53 PM 69.1 °F 44.1 °F 40% 30.19 in 10.0 mi ESE 3.5 mph - N/A   Clear
5:53 PM 63.0 °F 51.1 °F 65% 30.19 in 10.0 mi South 6.9 mph - N/A   Clear
6:53 PM 61.0 °F 52.0 °F 72% 30.20 in 10.0 mi South 5.8 mph - N/A   Clear
7:53 PM 57.9 °F 52.0 °F 81% 30.20 in 10.0 mi Calm Calm - N/A   Clear
8:53 PM 53.1 °F 50.0 °F 89% 30.19 in 9.0 mi Calm Calm - N/A   Clear
9:53 PM 53.1 °F 50.0 °F 89% 30.20 in 6.0 mi Calm Calm - N/A   Clear
10:53 PM 50.0 °F 48.0 °F 93% 30.19 in 4.0 mi Calm Calm - N/A   Clear
11:53 PM 51.1 °F 48.0 °F 89% 30.18 in 7.0 mi Calm Calm - N/A   Clear